Regional Weather Roundup
Issued by NWS Newport/Morehead, NC

Home |  Current Version |  Previous Version |  Text Only |  Print | Product List |  Glossary On
Versions: 1 2 3 4 5 6 7 8 9 10 11 12 13 14 15 16 17 18 19 20 21 22 23 24 25 26 27 28 29 30 31 32 33 34 35 36 37 38 39 40 41 42 43 44 45 46 47 48 49 50
435
ASUS42 KMHX 250215
RWRMHX
WEATHER ROUNDUP FOR EASTERN NORTH CAROLINA
NATIONAL WEATHER SERVICE NEWPORT/MOREHEAD CITY NC
1000 PM EDT MON JUN 24 2024

NOTE: "FAIR" INDICATES FEW OR NO CLOUDS BELOW 12,000 FEET
WITH NO SIGNIFICANT WEATHER AND/OR OBSTRUCTIONS TO VISIBILITY

NCZ015>017-031-032-045>047-102-103-250300-
NORTH COAST

CITY           SKY/WX    TMP DP  RH WIND       PRES   REMARKS
EDENTON        CLEAR     75  75 100 CALM      29.90R
ELIZABETH CITY MOCLDY    73  70  90 CALM      29.89R
KITTY HAWK     PTCLDY    71  71  97 CALM      29.87R
MANTEO         PTCLDY    71  70  96 CALM      29.89R

$$

NCZ045>047-081-094-103-104-250300-
CENTRAL COAST

CITY           SKY/WX    TMP DP  RH WIND       PRES   REMARKS
FRISCO         MOCLDY    74  73  97 CALM      29.87R
ENGELHARD      MOCLDY    73  73  97 CALM      29.87R

$$

NCZ095-097-098-100-101-250300-
SOUTHERN COAST

CITY           SKY/WX    TMP DP  RH WIND       PRES   REMARKS
PINEY ISLAND   MOCLDY    80  32  17 CALM      29.86R
HAVELOCK       CLOUDY    74  73  97 E5        29.87R
BEAUFORT       CLOUDY    76  73  91 N3        29.84R
CAPE CARTERET  CLOUDY    78  75  90 NE6       29.84S
JACKSONVILLE   CLOUDY    77  76  96 N5        29.83S
WILMINGTON     CLOUDY    75  72  90 CALM      29.83S


$$

NCZ011>013-027>030-043-044-078>080-089-090>093-098-250300-
COASTAL PLAIN

CITY           SKY/WX    TMP DP  RH WIND       PRES   REMARKS
AHOSKIE        PTCLDY    73  73 100 CALM      29.89R
TARBORO        PTCLDY    78  72  82 SE5       29.88R
WILLIAMSTON    PTCLDY    74  72  92 CALM      29.89R
ROCKY MOUNT    PTCLDY    82  76  81 VRB5      29.88R
GREENVILLE     PTCLDY    77  77 100 CALM      29.87R
WASHINGTON     PTCLDY    73  71  93 CALM      29.88R
GOLDSBORO      PTCLDY    78  77  97 E5        29.88R
KINSTON        PTCLDY    76  73  91 NE3       29.88R
MOUNT OLIVE    MOCLDY    77  74  92 E8        29.87R
NEW BERN       MOCLDY    74  73  97 SE3       29.88R
KENANSVILLE    PTCLDY    77  75  94 CALM      29.86S
RICHLANDS      MOCLDY    77  75  93 CALM      29.87R
WALLACE        MOCLDY    75  74  96 NW8       29.86R
CLINTON        PTCLDY    81  79  96 CALM      29.87R
ELIZABETHTOWN  MOCLDY    80  72  76 E3        29.86R
WHITEVILLE     MOCLDY    76  73  90 SW8       29.85S

$$

AMZ130-135-150-152-154-156-158-170-250-252-270-ANZ085-086-088-633-658-670-250300-
MARINE OBSERVATIONS

STATION/POSITION TIME  TEMP    WIND        PRES    WAVE   SWELL
                       AIR SEA DIR/SP/G            HT/PER HT/PER
                 (UTC) (F)     (DEG/KT/KT) (MB)    (FT/S) (FT/S)
64 E VA BEACH    NOT AVBL
64 E VA BEACH    0130   77 78                N/A     3/ 7
DUCK PIER        0130   76     250/  4/  5 1011.4
2 E DUCK         0156      74                N/A     2/ 7
10 NE DUCK       0130   74 75                N/A     3/ 7
OREGON INLET     0130   78 84  240/  2/  3 1012.1
13E OREGON INLT  0156      78                N/A     3/ 7   3/ 7
13E CAPE HATTERA 0100      80                N/A     4/ 7
HATTERAS CG      0130   78 80  300/  5/  6 1011.9
DIAMOND BUOY     NOT AVBL
CAPE LOOKOUT     0200   78     270/  2/  2 1010.7
BEAUFORT LAB     0130   76 82  110/  3/  5 1010.1
30 SE NEW RVR IN 0108   81 80  270/ 12/ 17 1010.4
30 SE NEW RVR IN 0156      80                N/A     7/ 7
27 SE WRIGHTSVLE 0108   80 81  210/ 17/ 23 1009.8
5 SE WRIGHTSVLE  0108   76 81  300/ 14/ 21 1006.6
27 SE WRIGHTSVL  0108   80 81  210/ 17/ 23 1009.8
FRYING PAN BUOY  NOT AVBL
225 S CAPE HAT   NOT AVBL
41 SE CHARLESTON NOT AVBL

$$